Regional Weather Roundup
Issued by NWS Charleston, SC

Current Version | Previous Version | Graphics & Text | Print | Product List | Glossary On
Versions: 1 2 3 4 5 6 7 8 9 10 11 12 13 14 15 16 17 18 19 20 21 22 23 24 25 26 27 28 29 30 31 32 33 34 35 36 37 38 39 40 41 42 43 44 45 46 47 48 49 50
000 ASUS42 KCHS 191825 RWRCHS REGIONAL WEATHER ROUNDUP NATIONAL WEATHER SERVICE CHARLESTON SC 100 PM EST FRI DEC 19 2014 NOTE: "FAIR" INDICATES FEW OR NO CLOUDS BELOW 12,000 FEET WITH NO SIGNIFICANT WEATHER AND/OR OBSTRUCTIONS TO VISIBILITY. NOT ALL STATIONS ARE QUALITY CONTROLLED BY THE NATIONAL WEATHER SERVICE. USE DATA WITH CAUTION...ESPECIALLY DEWPOINT OBSERVATIONS. SCZ027-030-031-034>040-042>050-191900- ...SOUTHEAST SOUTH CAROLINA... CITY SKY/WX TMP DP RH WIND PRES REMARKS N CHARLESTON CLOUDY 60 47 61 SE6 30.11F 6HR MIN TEMP: 40; 6HR MAX TEMP: 60; WATERFRONT PRK N/A 59 N/A N/A E6 N/A MOUNT PLEASANT LGT RAIN 57 46 67 CALM 30.11F PINOPOLIS N/A 54 48 82 NW6 30.05S MONCKS CORNER FAIR 59 46 63 N3 30.10F SUMMERVILLE NOT AVBL BEAUFORT MCAS CLOUDY 59 42 53 CALM 30.12F 6HR MIN TEMP: 41; 6HR MAX TEMP: 60; BEAUFORT ARPT FAIR 59 45 58 CALM 30.11F HILTON HEAD IS PTSUNNY 59 45 58 CALM 30.13F WALTERBORO MOCLDY 61 37 41 SE3 30.12F ALLENDALE FAIR 59 41 51 CALM 30.11F ...SOUTHERN MIDLANDS AND PEE DEE... CITY SKY/WX TMP DP RH WIND PRES REMARKS GEORGETOWN NOT AVBL KINGSTREE NOT AVBL ORANGEBURG MOSUNNY 58 40 51 NE5 30.12F 6HR MIN TEMP: 36; 6HR MAX TEMP: 58; BARNWELL FAIR 63 39 42 CALM 30.11F AIKEN FAIR 59 37 44 CALM 30.13F MANNING NOT AVBL COLUMBIA MOSUNNY 59 37 44 CALM 30.12F 6HR MIN TEMP: 34; 6HR MAX TEMP: 59; SUMTER SUNNY 58 32 36 NE6 30.11F 6HR MIN TEMP: 34; 6HR MAX TEMP: 58; 6HR PCP: TRACE; FLORENCE SUNNY 57 27 31 CALM 30.13F 6HR MIN TEMP: 35; 6HR MAX TEMP: 58; MYRTLE BEACH SUNNY 57 34 41 VRB7 30.14F N MYRTLE BEACH SUNNY 58 30 34 VRB5 30.12F 6HR MIN TEMP: 35; 6HR MAX TEMP: 58; $$ GAZ063-065-086>088-099>101-113>116-118-119-134>141-150-191900- ...SOUTHEAST GEORGIA... CITY SKY/WX TMP DP RH WIND PRES REMARKS SAVANNAH ARPT CLOUDY 59 40 49 NW3 30.12F 6HR MIN TEMP: 41; 6HR MAX TEMP: 60; HUNTER AAF CLOUDY 60 42 50 N2 30.09F 6HR MIN TEMP: 40; 6HR MAX TEMP: 61; FORT STEWART CLOUDY 59 42 53 CALM 30.10F 6HR MIN TEMP: 42; 6HR MAX TEMP: 59; STATESBORO CLOUDY 61 42 50 CALM 30.11F SYLVANIA MOCLDY 58 43 58 CALM 30.12F CLAXTON FAIR 59 43 55 W3 30.12F ...CSRA...CENTRAL AND FAR SOUTHEAST GEORGIA... CITY SKY/WX TMP DP RH WIND PRES REMARKS THOMSON SUNNY 61 42 49 CALM 30.14F AUGUSTA-BUSH SUNNY 61 36 39 CALM 30.11F 6HR MIN TEMP: 31; 6HR MAX TEMP: 61; AUGUSTA-DANIEL SUNNY 61 36 39 VRB3 30.11F SWAINSBORO FAIR 61 43 51 CALM 30.13S VIDALIA MOSUNNY 59 41 51 NW3 30.13F EASTMAN FAIR 58 42 54 W3 30.15F HAZLEHURST FAIR 59 43 55 CALM 30.12F ALMA PTSUNNY 60 41 49 VRB3 30.12F 6HR MIN TEMP: 46; 6HR MAX TEMP: 60; WAYCROSS PTSUNNY 65 44 47 N3 30.12F JESUP FAIR 64 45 48 CALM 30.11F BAXLEY FAIR 61 41 48 CALM 30.12F BRUNSWICK CLOUDY 64 37 36 CALM 30.11F SAINT SIMONS CLOUDY 61 43 51 VRB5 30.12F 6HR MIN TEMP: 44; 6HR MAX TEMP: 62; $$ SCZ027-028-034-036>038-045-046-048>050-GAZ119-141-191900- ...LAKE AND SUPPLEMENTAL COASTAL OBSERVATIONS... STATION/POSITION TIME TEMP WIND PRES WAVE SWELL AIR SEA DIR/SP/G HT/PER HT/PER/DIR (UTC) (F) (DEG/KT/KT) (MB) (FT/S) (FT/S/D) UPR LAKE MARION NOT AVBL WINYAH BAY 1800 52 60/ 9 1020.0S LAKE MURRAY 1700 56 170/ 3/ 4 1019.6F ACE BASIN NERRS 1800 59 30/ 1 1020.0S FORT PULASKI 1800 57 56 CALM / 1 1020.0F SAPELO ISLAND 1800 60 240/ 3 1020.0S $$ ANZ835-935-AMZ111-154-330-350-352-354-370-450-454-472-191900- ...C-MAN AND BUOY OBSERVATIONS... STATION/POSITION TIME TEMP WIND PRES WAVE SWELL AIR SEA DIR/SP/G HT/PER HT/PER/DIR (UTC) (F) (DEG/KT/KT) (MB) (FT/S) (FT/S/D) BUOY 41004 1800 61 67 30/ 4/ 8 1019.1F 1/10 2/10 BUOY 41008 1800 56 58 340/ 4/ 6 1020.0F 1/10 2/100/10 FOLLY BEACH CMAN 1800 56 50/ 8/ 9 1020.2F CAPERS NEARSHORE 1700 55 60/ 10/ 10 N/A FRIPP NEARSHORE NOT AVBL STATION/POSITION TIME TEMP WIND PRES WAVE SWELL AIR SEA DIR/SP/G HT/PER HT/PER/DIR (UTC) (F) (DEG/KT/KT) (MB) (FT/S) (FT/S/D) 5E ST. MARYS GA 1800 62 N/A 1/10 FRYING PAN BUOY 1800 54 62 30/ 8/ 8 1020.7F 2/ 8 2/ 90/ 8 BUOY 41025 1700 49 1020.4 2/ 8 CAPE LOOKOUT NC 1800 51 20/ 6/ 8 1019.5F BUOY 41002 1704 67 72 360/ 8/ 12 1018.4F 3/ 9 3/ 20/ 9 BUOY 41010 1800 71 76 350/ 4/ 6 1019.1F 2/10 2/ 70/10 ST AUGUSTINE FL 1800 62 360/ 4/ 5 1020.1F $$

USA.gov is the U.S. government's official web portal to all federal, state and local government web resources and services.